• In Uzbekistan
  • List of Countries
  • For 7 days
  • Water Temperature
  • Satellite Maps
  • Weather Map
  • Weather Widgets
  • user-avatar
    Login

    Hourly Weather Namibe

    Today, 23 March, Thursday

    Time Temperature Precipitation Wind Pressure Humidity
    00:00 +29°C° 0.1 mm 2 mps 759 mmHg 80%
    01:00 +29°C° 0 mm 1 mps 759 mmHg 80%
    02:00 +29°C° 0 mm 1 mps 759 mmHg 81%
    03:00 +28°C° 0 mm 1 mps 759 mmHg 81%
    04:00 +28°C° 0 mm 1 mps 758 mmHg 82%
    05:00 +26°C° 0 mm 0 mps 758 mmHg 81%
    06:00 +26°C° 0 mm 0 mps 758 mmHg 80%
    07:00 +27°C° 0 mm 0 mps 758 mmHg 80%
    08:00 +28°C° 0 mm 0 mps 759 mmHg 74%
    09:00 +31°C° 0 mm 1 mps 759 mmHg 68%
    10:00 +32°C° 0 mm 1 mps 759 mmHg 62%
    11:00 +35°C° 0 mm 2 mps 759 mmHg 56%
    12:00 +36°C° 0 mm 2 mps 758 mmHg 51%
    13:00 +37°C° 0 mm 3 mps 758 mmHg 45%
    14:00 +37°C° 0 mm 4 mps 757 mmHg 45%
    15:00 +37°C° 0 mm 5 mps 756 mmHg 46%
    16:00 +38°C° 0 mm 6 mps 756 mmHg 46%
    17:00 +35°C° 0.5 mm 5 mps 756 mmHg 54%
    18:00 +33°C° 0.5 mm 5 mps 757 mmHg 61%
    19:00 +30°C° 0.5 mm 5 mps 757 mmHg 69%
    20:00 +30°C° 0.2 mm 4 mps 758 mmHg 70%
    21:00 +30°C° 0.2 mm 4 mps 758 mmHg 70%
    22:00 +30°C° 0.2 mm 3 mps 759 mmHg 71%
    23:00 +30°C° 0.1 mm 3 mps 759 mmHg 71%

    Tomorrow, 24 March, Friday

    Time Temperature Precipitation Wind Pressure Humidity
    00:00 +30°C° 0.1 mm 3 mps 758 mmHg 71%
    01:00 +30°C° 0.1 mm 2 mps 758 mmHg 71%
    02:00 +29°C° 0 mm 2 mps 758 mmHg 72%
    03:00 +29°C° 0 mm 2 mps 757 mmHg 73%
    04:00 +29°C° 0 mm 2 mps 757 mmHg 74%
    05:00 +29°C° 0 mm 2 mps 757 mmHg 75%
    06:00 +29°C° 0 mm 2 mps 757 mmHg 75%
    07:00 +29°C° 0 mm 2 mps 758 mmHg 75%
    08:00 +30°C° 0 mm 2 mps 758 mmHg 70%
    09:00 +31°C° 0 mm 2 mps 758 mmHg 64%
    10:00 +34°C° 0 mm 2 mps 758 mmHg 59%
    11:00 +35°C° 0 mm 3 mps 758 mmHg 54%
    12:00 +36°C° 0 mm 4 mps 757 mmHg 50%
    13:00 +38°C° 0 mm 4 mps 757 mmHg 45%
    14:00 +37°C° 0.1 mm 5 mps 756 mmHg 50%
    15:00 +35°C° 0.1 mm 5 mps 756 mmHg 55%
    16:00 +34°C° 0.1 mm 6 mps 755 mmHg 59%
    17:00 +33°C° 0.3 mm 5 mps 756 mmHg 64%
    18:00 +32°C° 0.3 mm 4 mps 757 mmHg 68%
    19:00 +30°C° 0.3 mm 4 mps 757 mmHg 73%
    20:00 +30°C° 0 mm 3 mps 758 mmHg 74%
    21:00 +29°C° 0 mm 2 mps 759 mmHg 75%
    22:00 +29°C° 0 mm 2 mps 759 mmHg 76%
    23:00 +29°C° 0.2 mm 2 mps 759 mmHg 76%

    Day after tomorrow, 25 March, Saturday

    Time Temperature Precipitation Wind Pressure Humidity
    00:00 +29°C° 0.2 mm 2 mps 759 mmHg 77%
    01:00 +29°C° 0.2 mm 2 mps 758 mmHg 78%
    02:00 +28°C° 0.1 mm 2 mps 758 mmHg 80%
    03:00 +28°C° 0.1 mm 2 mps 757 mmHg 82%
    04:00 +28°C° 0.1 mm 2 mps 757 mmHg 85%
    05:00 +28°C° 0 mm 2 mps 757 mmHg 85%
    06:00 +28°C° 0 mm 1 mps 758 mmHg 85%
    07:00 +28°C° 0 mm 1 mps 758 mmHg 85%
    08:00 +29°C° 0 mm 1 mps 758 mmHg 78%
    09:00 +30°C° 0 mm 2 mps 759 mmHg 71%
    10:00 +32°C° 0 mm 2 mps 759 mmHg 64%
    11:00 +34°C° 0 mm 3 mps 758 mmHg 59%
    12:00 +35°C° 0 mm 3 mps 758 mmHg 55%
    13:00 +37°C° 0 mm 4 mps 757 mmHg 50%
    14:00 +36°C° 0 mm 5 mps 756 mmHg 53%
    15:00 +35°C° 0 mm 5 mps 756 mmHg 55%
    16:00 +35°C° 0 mm 5 mps 755 mmHg 58%
    17:00 +33°C° 0.5 mm 5 mps 755 mmHg 63%
    18:00 +32°C° 0.5 mm 4 mps 756 mmHg 69%
    19:00 +29°C° 0.5 mm 4 mps 757 mmHg 75%
    20:00 +29°C° 0.5 mm 3 mps 757 mmHg 75%
    21:00 +29°C° 0.5 mm 3 mps 758 mmHg 76%
    22:00 +29°C° 0.5 mm 2 mps 758 mmHg 77%
    23:00 +29°C° 0.6 mm 2 mps 758 mmHg 77%

    26 March, Sunday

    Time Temperature Precipitation Wind Pressure Humidity
    00:00 +29°C° 0.6 mm 2 mps 758 mmHg 77%
    01:00 +29°C° 0.6 mm 2 mps 757 mmHg 77%
    02:00 +29°C° 0.6 mm 2 mps 757 mmHg 77%
    03:00 +29°C° 0.6 mm 2 mps 756 mmHg 78%
    04:00 +29°C° 0.6 mm 2 mps 756 mmHg 79%
    05:00 +29°C° 0.3 mm 2 mps 756 mmHg 79%
    06:00 +29°C° 0.3 mm 2 mps 757 mmHg 78%
    07:00 +29°C° 0.3 mm 2 mps 757 mmHg 78%
    08:00 +31°C° 0 mm 2 mps 757 mmHg 71%
    09:00 +32°C° 0 mm 2 mps 758 mmHg 64%
    10:00 +35°C° 0 mm 2 mps 758 mmHg 56%
    11:00 +36°C° 0.1 mm 3 mps 757 mmHg 52%
    12:00 +37°C° 0.1 mm 4 mps 756 mmHg 49%
    13:00 +39°C° 0.1 mm 5 mps 756 mmHg 45%
    14:00 +39°C° 0.1 mm 5 mps 755 mmHg 48%
    15:00 +38°C° 0.1 mm 6 mps 755 mmHg 51%
    16:00 +36°C° 0.1 mm 7 mps 754 mmHg 55%
    17:00 +34°C° 0.5 mm 6 mps 755 mmHg 59%
    18:00 +33°C° 0.5 mm 5 mps 755 mmHg 63%
    19:00 +32°C° 0.5 mm 4 mps 756 mmHg 67%
    20:00 +30°C° 0.9 mm 4 mps 756 mmHg 67%
    21:00 +30°C° 0.9 mm 3 mps 757 mmHg 67%
    22:00 +30°C° 0.9 mm 3 mps 757 mmHg 67%
    23:00 +30°C° 1.1 mm 3 mps 757 mmHg 68%

    27 March, Monday

    Time Temperature Precipitation Wind Pressure Humidity
    00:00 +30°C° 1.1 mm 2 mps 757 mmHg 69%
    01:00 +30°C° 1.1 mm 2 mps 756 mmHg 70%
    02:00 +30°C° 0.7 mm 2 mps 756 mmHg 71%
    03:00 +29°C° 0.7 mm 2 mps 756 mmHg 71%
    04:00 +29°C° 0.7 mm 2 mps 755 mmHg 72%
    05:00 +30°C° 0 mm 2 mps 756 mmHg 70%
    06:00 +30°C° 0 mm 2 mps 756 mmHg 69%
    07:00 +30°C° 0 mm 2 mps 757 mmHg 68%
    08:00 +32°C° 0 mm 2 mps 757 mmHg 60%
    09:00 +35°C° 0 mm 2 mps 757 mmHg 53%
    10:00 +37°C° 0 mm 2 mps 757 mmHg 46%
    11:00 +38°C° 0 mm 3 mps 756 mmHg 42%
    12:00 +40°C° 0 mm 4 mps 756 mmHg 37%
    13:00 +42°C° 0 mm 4 mps 755 mmHg 33%
    14:00 +41°C° 0 mm 5 mps 754 mmHg 36%
    15:00 +40°C° 0 mm 6 mps 754 mmHg 40%
    16:00 +40°C° 0 mm 6 mps 754 mmHg 43%
    17:00 +37°C° 0 mm 5 mps 754 mmHg 49%
    18:00 +35°C° 0 mm 5 mps 755 mmHg 56%
    19:00 +33°C° 0 mm 4 mps 755 mmHg 63%
    20:00 +33°C° 0.3 mm 4 mps 756 mmHg 63%
    21:00 +33°C° 0.3 mm 3 mps 757 mmHg 63%
    22:00 +33°C° 0.3 mm 3 mps 757 mmHg 63%
    23:00 +31°C° 0.4 mm 3 mps 757 mmHg 63%

    28 March, Tuesday

    Time Temperature Precipitation Wind Pressure Humidity
    00:00 +31°C° 0.4 mm 2 mps 757 mmHg 64%
    01:00 +31°C° 0.4 mm 2 mps 756 mmHg 65%
    02:00 +31°C° 0 mm 2 mps 756 mmHg 65%
    03:00 +31°C° 0 mm 2 mps 756 mmHg 66%
    04:00 +30°C° 0 mm 2 mps 756 mmHg 66%
    05:00 +31°C° 0 mm 2 mps 756 mmHg 65%
    06:00 +31°C° 0 mm 2 mps 756 mmHg 64%
    07:00 +31°C° 0 mm 2 mps 757 mmHg 62%
    08:00 +34°C° 0 mm 2 mps 757 mmHg 54%
    09:00 +36°C° 0 mm 3 mps 757 mmHg 45%
    10:00 +38°C° 0 mm 3 mps 757 mmHg 37%
    11:00 +40°C° 0 mm 3 mps 756 mmHg 32%
    12:00 +42°C° 0 mm 4 mps 755 mmHg 28%
    13:00 +45°C° 0 mm 5 mps 754 mmHg 24%
    14:00 +43°C° 0 mm 5 mps 754 mmHg 27%
    15:00 +44°C° 0 mm 6 mps 754 mmHg 29%
    16:00 +42°C° 0 mm 6 mps 753 mmHg 32%
    17:00 +40°C° 0 mm 5 mps 754 mmHg 40%
    18:00 +37°C° 0 mm 5 mps 754 mmHg 48%
    19:00 +34°C° 0 mm 4 mps 755 mmHg 55%
    20:00 +34°C° 0 mm 4 mps 755 mmHg 56%
    21:00 +34°C° 0 mm 3 mps 756 mmHg 56%
    22:00 +32°C° 0 mm 2 mps 756 mmHg 57%
    23:00 +32°C° 0 mm 2 mps 756 mmHg 57%
    Show more